Location: Unspecified
(0.0000°N, 0.0000°E)
Time: 15:36:53
(UTC+00:00)

XW-2C - Visible Passes

Search period start: 26 May 2019 00:00
Search period end: 05 June 2019 00:00
Orbit: 510 x 528 km, 97.5° (Epoch: 26 May)

Date Brightness Start Highest point End Pass type
(mag) Time Alt. Az. Time Alt. Az. Time Alt. Az.
28 May ? 05:24:30 10° NNE 05:28:12 54° E 05:31:53 10° S visible
29 May ? 05:11:02 10° NE 05:14:25 31° E 05:17:47 10° SSE visible
30 May ? 04:57:53 10° NE 05:00:38 19° E 05:03:23 10° SSE visible
30 May ? 18:25:20 10° SW 18:27:36 15° W 18:29:51 10° WNW visible
31 May ? 04:45:25 10° E 04:46:52 12° ESE 04:48:18 10° SE visible
04 Jun ? 05:21:57 10° NNE 05:25:35 48° E 05:29:14 10° S visible
